Location: Eastlake (historical)
(39.0077°N, 122.6678°W)
Time: 09:40:13
(UTC+00:00)

COSMO-SKYMED 1 - Pass Details

Date: 25 November 2020
Orbit: 621 x 623 km, 97.9° (Epoch: 26 January)

Event Time Altitude Azimuth Distance (km) Brightness Sun altitude
Rises 13:28:14 0° 168° (SSE) 2,886 6.3 -18.5°
Reaches altitude 10° 13:30:25 10° 169° (S) 1,984 5.4 -18.1°
Maximum altitude 13:34:44 82° 256° (WSW) 634 2.4 -17.3°
Drops below altitude 10° 13:39:06 10° 346° (NNW) 2,000 4.9 -16.5°
Enters shadow 13:39:48 - 346° (NNW) 2,290 5.2 -16.4°
